Hourly Weather Kalgoorlie

Today, 27 November, Friday

Time Temperature Precipitation Wind Pressure Humidity
00:00 +30°C° 0 mm 5 mps 724 mmHg 27%
01:00 +29°C° 0 mm 6 mps 724 mmHg 25%
02:00 +27°C° 0 mm 8 mps 724 mmHg 23%
03:00 +27°C° 0 mm 8 mps 724 mmHg 31%
04:00 +26°C° 0 mm 8 mps 724 mmHg 38%
05:00 +24°C° 0 mm 8 mps 724 mmHg 46%
06:00 +24°C° 0 mm 7 mps 725 mmHg 47%
07:00 +24°C° 0 mm 7 mps 725 mmHg 47%
08:00 +26°C° 0 mm 7 mps 726 mmHg 48%
09:00 +28°C° 0 mm 7 mps 726 mmHg 42%
10:00 +30°C° 0 mm 7 mps 725 mmHg 35%
11:00 +33°C° 0 mm 6 mps 725 mmHg 28%
12:00 +34°C° 0 mm 6 mps 725 mmHg 26%
13:00 +35°C° 0 mm 6 mps 725 mmHg 23%
14:00 +36°C° 0 mm 6 mps 724 mmHg 21%
15:00 +36°C° 0 mm 5 mps 724 mmHg 21%
16:00 +36°C° 0 mm 5 mps 724 mmHg 20%
17:00 +36°C° 0 mm 4 mps 724 mmHg 19%
18:00 +33°C° 0 mm 6 mps 724 mmHg 25%
19:00 +29°C° 0 mm 7 mps 725 mmHg 31%
20:00 +26°C° 0 mm 9 mps 725 mmHg 37%
21:00 +24°C° 0 mm 9 mps 725 mmHg 41%
22:00 +22°C° 0 mm 8 mps 726 mmHg 44%
23:00 +20°C° 0 mm 8 mps 726 mmHg 48%

Tomorrow, 28 November, Saturday

Time Temperature Precipitation Wind Pressure Humidity
00:00 +18°C° 0 mm 8 mps 726 mmHg 50%
01:00 +17°C° 0 mm 7 mps 726 mmHg 52%
02:00 +16°C° 0 mm 6 mps 726 mmHg 54%
03:00 +16°C° 0 mm 6 mps 726 mmHg 56%
04:00 +15°C° 0 mm 6 mps 727 mmHg 59%
05:00 +14°C° 0 mm 6 mps 727 mmHg 61%
06:00 +16°C° 0 mm 7 mps 728 mmHg 56%
07:00 +17°C° 0 mm 7 mps 728 mmHg 51%
08:00 +18°C° 0 mm 8 mps 728 mmHg 46%
09:00 +21°C° 0 mm 7 mps 728 mmHg 41%
10:00 +23°C° 0 mm 7 mps 728 mmHg 36%
11:00 +26°C° 0 mm 6 mps 728 mmHg 32%
12:00 +27°C° 0 mm 6 mps 728 mmHg 29%
13:00 +28°C° 0 mm 5 mps 727 mmHg 27%
14:00 +29°C° 0 mm 5 mps 727 mmHg 24%
15:00 +28°C° 0 mm 5 mps 727 mmHg 25%
16:00 +28°C° 0 mm 6 mps 727 mmHg 26%
17:00 +28°C° 0 mm 7 mps 727 mmHg 27%
18:00 +26°C° 0 mm 7 mps 727 mmHg 29%
19:00 +24°C° 0 mm 7 mps 728 mmHg 32%
20:00 +22°C° 0 mm 7 mps 728 mmHg 34%
21:00 +21°C° 0 mm 8 mps 728 mmHg 41%
22:00 +18°C° 0 mm 9 mps 728 mmHg 49%
23:00 +16°C° 0 mm 10 mps 729 mmHg 56%

Day after tomorrow, 29 November, Sunday

Time Temperature Precipitation Wind Pressure Humidity
00:00 +15°C° 0 mm 9 mps 728 mmHg 59%
01:00 +15°C° 0 mm 8 mps 728 mmHg 63%
02:00 +14°C° 0 mm 7 mps 728 mmHg 67%
03:00 +14°C° 0 mm 6 mps 728 mmHg 68%
04:00 +13°C° 0 mm 6 mps 728 mmHg 69%
05:00 +13°C° 0 mm 5 mps 728 mmHg 69%
06:00 +15°C° 0 mm 5 mps 728 mmHg 61%
07:00 +17°C° 0 mm 6 mps 728 mmHg 53%
08:00 +20°C° 0 mm 7 mps 728 mmHg 45%
09:00 +23°C° 0 mm 6 mps 727 mmHg 39%
10:00 +26°C° 0 mm 6 mps 727 mmHg 33%
11:00 +29°C° 0 mm 6 mps 726 mmHg 28%
12:00 +30°C° 0 mm 6 mps 725 mmHg 26%
13:00 +33°C° 0 mm 6 mps 724 mmHg 23%
14:00 +35°C° 0 mm 5 mps 724 mmHg 21%
15:00 +35°C° 0 mm 4 mps 723 mmHg 21%
16:00 +35°C° 0 mm 3 mps 722 mmHg 21%
17:00 +34°C° 0 mm 1 mps 721 mmHg 21%
18:00 +34°C° 0 mm 2 mps 720 mmHg 23%
19:00 +33°C° 0 mm 3 mps 720 mmHg 25%
20:00 +32°C° 0 mm 4 mps 720 mmHg 27%
21:00 +30°C° 0 mm 5 mps 720 mmHg 27%
22:00 +29°C° 0 mm 5 mps 720 mmHg 28%
23:00 +28°C° 0 mm 5 mps 721 mmHg 29%

30 November, Monday

Time Temperature Precipitation Wind Pressure Humidity
00:00 +24°C° 0 mm 6 mps 721 mmHg 37%
01:00 +21°C° 0 mm 8 mps 721 mmHg 46%
02:00 +17°C° 0 mm 9 mps 720 mmHg 54%
03:00 +16°C° 0 mm 8 mps 721 mmHg 59%
04:00 +15°C° 0 mm 7 mps 722 mmHg 63%
05:00 +14°C° 0 mm 5 mps 723 mmHg 67%
06:00 +15°C° 0 mm 6 mps 723 mmHg 60%
07:00 +17°C° 0 mm 7 mps 724 mmHg 53%
08:00 +20°C° 0 mm 8 mps 725 mmHg 46%
09:00 +21°C° 0 mm 9 mps 724 mmHg 39%
10:00 +23°C° 0 mm 10 mps 724 mmHg 33%
11:00 +26°C° 0 mm 10 mps 724 mmHg 26%
12:00 +26°C° 0 mm 11 mps 724 mmHg 27%
13:00 +24°C° 0 mm 11 mps 724 mmHg 28%
14:00 +24°C° 0 mm 12 mps 724 mmHg 30%
15:00 +23°C° 0 mm 11 mps 725 mmHg 33%
16:00 +21°C° 0 mm 10 mps 725 mmHg 37%
17:00 +19°C° 0 mm 9 mps 725 mmHg 40%
18:00 +17°C° 0 mm 9 mps 726 mmHg 43%
19:00 +16°C° 0 mm 10 mps 728 mmHg 46%
20:00 +13°C° 0 mm 10 mps 729 mmHg 49%
21:00 +12°C° 0 mm 9 mps 729 mmHg 50%
22:00 +12°C° 0 mm 8 mps 730 mmHg 52%
23:00 +11°C° 0 mm 7 mps 731 mmHg 54%

1 December, Tuesday

Time Temperature Precipitation Wind Pressure Humidity
00:00 +10°C° 0 mm 7 mps 731 mmHg 56%
01:00 +10°C° 0 mm 6 mps 731 mmHg 59%
02:00 +9°C° 0 mm 5 mps 732 mmHg 61%
03:00 +8°C° 0 mm 5 mps 732 mmHg 64%
04:00 +8°C° 0 mm 4 mps 733 mmHg 67%
05:00 +8°C° 0 mm 3 mps 733 mmHg 70%
06:00 +10°C° 0 mm 4 mps 733 mmHg 60%
07:00 +12°C° 0 mm 5 mps 734 mmHg 50%
08:00 +14°C° 0 mm 6 mps 734 mmHg 40%
09:00 +15°C° 0 mm 5 mps 734 mmHg 35%
10:00 +17°C° 0 mm 5 mps 734 mmHg 30%
11:00 +20°C° 0 mm 4 mps 733 mmHg 24%
12:00 +21°C° 0 mm 4 mps 733 mmHg 22%
13:00 +22°C° 0 mm 4 mps 732 mmHg 19%
14:00 +25°C° 0 mm 4 mps 732 mmHg 17%
15:00 +25°C° 0 mm 4 mps 732 mmHg 16%
16:00 +25°C° 0 mm 4 mps 732 mmHg 15%
17:00 +26°C° 0 mm 3 mps 731 mmHg 14%
18:00 +24°C° 0 mm 3 mps 732 mmHg 16%
19:00 +22°C° 0 mm 3 mps 732 mmHg 18%
20:00 +20°C° 0 mm 3 mps 733 mmHg 20%
21:00 +19°C° 0 mm 5 mps 733 mmHg 27%
22:00 +17°C° 0 mm 7 mps 733 mmHg 34%
23:00 +16°C° 0 mm 10 mps 733 mmHg 40%

2 December, Wednesday

Time Temperature Precipitation Wind Pressure Humidity
00:00 +15°C° 0 mm 9 mps 733 mmHg 46%
01:00 +12°C° 0 mm 9 mps 733 mmHg 51%
02:00 +11°C° 0 mm 8 mps 733 mmHg 56%
03:00 +11°C° 0 mm 7 mps 733 mmHg 58%
04:00 +10°C° 0 mm 7 mps 734 mmHg 59%
05:00 +10°C° 0 mm 6 mps 734 mmHg 61%
06:00 +13°C° 0 mm 6 mps 734 mmHg 54%
07:00 +16°C° 0 mm 7 mps 734 mmHg 47%
08:00 +18°C° 0 mm 7 mps 734 mmHg 40%
09:00 +21°C° 0 mm 6 mps 734 mmHg 33%
10:00 +24°C° 0 mm 6 mps 733 mmHg 26%
11:00 +27°C° 0 mm 5 mps 733 mmHg 20%
12:00 +29°C° 0 mm 5 mps 732 mmHg 17%
13:00 +30°C° 0 mm 5 mps 732 mmHg 15%
14:00 +32°C° 0 mm 4 mps 731 mmHg 13%
15:00 +32°C° 0 mm 4 mps 731 mmHg 12%
16:00 +32°C° 0 mm 4 mps 730 mmHg 12%
17:00 +33°C° 0 mm 4 mps 730 mmHg 12%
18:00 +30°C° 0 mm 4 mps 730 mmHg 13%
19:00 +28°C° 0 mm 4 mps 730 mmHg 15%
20:00 +26°C° 0 mm 5 mps 730 mmHg 17%
21:00 +25°C° 0 mm 5 mps 730 mmHg 19%
22:00 +24°C° 0 mm 6 mps 730 mmHg 20%
23:00 +23°C° 0 mm 6 mps 730 mmHg 21%
Show more